TimeEST,TemperatureF,Dew PointF,Humidity,Sea Level PressureIn,VisibilityMPH,Wind Direction,Wind SpeedMPH,Gust SpeedMPH,PrecipitationIn,Events,Conditions,WindDirDegrees,DateUTC
12:51 AM,37.0,28.9,73,29.80,10.0,NW,12.7,19.6,N/A,,Overcast,310,2012-11-09 05:51:00
1:51 AM,37.0,28.9,73,29.81,10.0,NW,12.7,-,N/A,,Overcast,320,2012-11-09 06:51:00
2:51 AM,37.0,28.0,70,29.82,10.0,NW,15.0,26.5,N/A,,Overcast,320,2012-11-09 07:51:00
3:51 AM,36.0,28.0,73,29.83,10.0,NW,6.9,18.4,N/A,,Scattered Clouds,310,2012-11-09 08:51:00
4:51 AM,35.1,28.0,76,29.84,10.0,NW,10.4,19.6,N/A,,Clear,320,2012-11-09 09:51:00
5:51 AM,35.1,28.0,76,29.88,10.0,WNW,15.0,-,N/A,,Partly Cloudy,300,2012-11-09 10:51:00
6:51 AM,35.6,26.6,70,29.89,10.0,NW,13.8,20.7,N/A,,Clear,310,2012-11-09 11:51:00
7:51 AM,39.0,28.0,65,29.92,10.0,NNW,11.5,19.6,N/A,,Clear,330,2012-11-09 12:51:00
8:51 AM,41.0,28.0,60,29.92,10.0,NW,19.6,26.5,N/A,,Clear,320,2012-11-09 13:51:00
9:51 AM,42.8,28.4,57,29.92,10.0,NW,9.2,20.7,N/A,,Clear,320,2012-11-09 14:51:00
10:51 AM,46.0,27.0,47,29.94,10.0,NW,16.1,23.0,N/A,,Partly Cloudy,310,2012-11-09 15:51:00
11:51 AM,46.9,24.1,41,29.94,10.0,NW,10.4,-,N/A,,Clear,320,2012-11-09 16:51:00
12:51 PM,48.9,21.0,33,29.94,10.0,NW,15.0,25.3,N/A,,Clear,320,2012-11-09 17:51:00
1:51 PM,50.0,19.9,31,29.94,10.0,NNW,16.1,23.0,N/A,,Clear,330,2012-11-09 18:51:00
2:51 PM,50.0,19.0,29,29.95,10.0,NW,12.7,20.7,N/A,,Clear,320,2012-11-09 19:51:00
3:51 PM,48.0,17.1,29,29.98,10.0,NW,20.7,31.1,N/A,,Clear,310,2012-11-09 20:51:00
4:51 PM,45.0,21.9,40,30.02,10.0,NW,10.4,19.6,N/A,,Clear,310,2012-11-09 21:51:00
5:51 PM,44.1,27.0,51,30.03,10.0,WNW,4.6,-,N/A,,Scattered Clouds,300,2012-11-09 22:51:00
6:51 PM,43.0,28.0,56,30.04,10.0,NNW,6.9,-,N/A,,Mostly Cloudy,330,2012-11-09 23:51:00
7:51 PM,42.1,28.0,58,30.04,10.0,Calm,Calm,-,N/A,,Partly Cloudy,0,2012-11-10 00:51:00
8:51 PM,43.0,28.0,56,30.06,10.0,WNW,5.8,-,N/A,,Overcast,290,2012-11-10 01:51:00
9:51 PM,36.0,28.9,76,30.07,10.0,Calm,Calm,-,N/A,,Partly Cloudy,0,2012-11-10 02:51:00
10:51 PM,35.1,28.9,78,30.08,5.0,Calm,Calm,-,N/A,,Haze,0,2012-11-10 03:51:00
11:51 PM,34.0,30.0,85,30.08,6.0,Calm,Calm,-,N/A,,Overcast,0,2012-11-10 04:51:00